Notices

What's New in latest Release from April 7th, 2021:

- Updated Glossary, including Speed of Maximum Gust, and Total Hourly Precipitation

- Updated national and regional climate services offices contacts and prices information

- Addition of station inventory lists for 1981-2010, 1971-2000, and 1961-1990 Normals.

If you haven't already, please take our survey and provide feedback about our website: https://eccc.sondage-survey.ca/f/LanguageSelection.aspx?s=442ca660-fcf1-47c0-95a9-59707d6fd709

Hourly Data Report for March 25, 2010

HALIFAX STANFIELD INT'L A
NOVA SCOTIA

44°52'48.060" N
63°30'00.050" W
145.40 m
8202250
71395
YHZ

Download Data

Hourly Data (March 2010)
Hourly Data Report for March 25, 2010
TIME
LST
Temp Definition
°C
Dew Point Definition
°C
Rel Hum Definition
%
Precip. Amount Definition
mm

Wind Dir Definition
10's deg

Wind Spd Definition
km/h
Visibility Definition
km
Stn Press Definition
kPa
Hmdx Definition


Wind Chill Definition


Weather Definition


00:00 0.6 -1.0 89   28 19 16.1 97.65     Snow Showers
01:00 0.4 -1.5 87   29 28 16.1 97.71     Snow Showers
02:00 -0.3 -1.6 91   29 28 9.7 97.82   -7 Snow Showers
03:00 -0.3 -2.5 85   30 32 16.1 97.93   -7 Snow Showers
04:00 -0.4 -3.7 78   31 33 24.1 98.05   -7 Snow Showers
05:00 -0.5 -3.8 78   31 37 24.1 98.18   -8 Snow Showers
06:00 -0.5 -4.3 75   31 30 24.1 98.32   -7 Snow Showers
07:00 -0.4 -4.2 75   31 32 24.1 98.42   -7 Mainly Clear
08:00 0.0 -3.8 76   30 33 24.1 98.57   -7 Mostly Cloudy
09:00 1.1 -3.8 70   30 39 24.1 98.66     Mostly Cloudy
10:00 2.7 -2.7 68   30 35 24.1 98.76     Mainly Clear
11:00 3.9 -3.4 59   30 33 24.1 98.81     Mainly Clear
12:00 5.0 -3.1 56   31 32 24.1 98.89     Mainly Clear
13:00 6.3 -2.1 55   31 35 24.1 98.94     Mainly Clear
14:00 6.9 -3.0 49   30 33 24.1 98.97     Mainly Clear
15:00 8.2 -4.0 42   31 35 24.1 98.99     Mainly Clear
16:00 8.1 -4.7 40   29 32 24.1 99.03     Clear
17:00 7.6 -5.1 40   31 30 24.1 99.08     Mainly Clear
18:00 6.2 -4.9 45   28 13 24.1 99.14     Mainly Clear
19:00 4.0 -4.8 53   25 11 24.1 99.19     Mainly Clear
20:00 2.0 -4.7 61   23 11 24.1 99.22     Mainly Clear
21:00 1.3 -4.8 64   22 11 24.1 99.20     Mainly Clear
22:00 2.0 -4.8 61   21 15 24.1 99.12     Clear
23:00 1.1 -4.9 64   20 15 24.1 99.09     Mainly Clear

Notes on Data Quality.

Legend

  • E = Estimated
  • M = Missing
  • NA = Not Available*
  • [empty] = Indicates an unobserved value
Date modified: